This demonstration page uses our WeatherBlox Daily Observations layout. Learn more.

Left ArrowRight Arrow

Hourly Observations for December 10, 2019

Temp ( °F °C ) Dew Point ( °F °C ) Humidity (%) Winds ( mph kmh ) Pressure ( in mb ) Visibility ( mi km ) Precip ( " mm )
12:56 am 00:56 Mostly Clear 16 -9 10 -12 79 79 VRB 3 6 30.19 1022 10 16 0.00 0.00
1:56 am 01:56 Mostly Clear 16 -9 10 -12 79 79 VRB 6 9 30.19 1022 10 16 0.00 0.00
2:56 am 02:56 Partly Cloudy 18 -8 10 -12 73 73 VRB 7 11 30.20 1023 10 16 0.00 0.00
3:56 am 03:56 Partly Cloudy 19 -7 12 -11 73 73 VRB 5 7 30.21 1023 10 16 0.00 0.00
4:56 am 04:56 Partly Cloudy 18 -8 12 -11 79 79 NW 7 11 30.22 1024 10 16 0.00 0.00
5:56 am 05:56 Mostly Cloudy 19 -7 12 -11 73 73 NW 7 11 30.27 1025 10 16 0.00 0.00
6:56 am 06:56 Mostly Cloudy 21 -6 14 -10 74 74 NNW 8 13 30.31 1026 10 16 0.00 0.00
7:56 am 07:56 Sunny 21 -6 10 -12 63 63 NNW 10 17 30.33 1027 10 16 0.00 0.00
8:56 am 08:56 undefined N/A N/A N/A WNW 10 17 N/A 10 16 0.00 0.00
9:02 am 09:02 Mostly Sunny 23 -5 12 -11 63 63 WNW 10 17 30.36 1028 10 16 0.00 0.00
9:56 am 09:56 Mostly Cloudy 25 -4 14 -10 63 63 WNW 7 11 30.40 1030 10 16 0.00 0.00
10:56 am 10:56 undefined N/A N/A N/A NW 12 19 N/A 9 14 0.00 0.00
11:56 am 11:56 Mostly Cloudy with Light Snow 25 -4 10 -12 54 54 NW 9 15 30.43 1030 10 16 0.00 0.00
12:56 pm 12:56 undefined N/A N/A N/A WNW 10 17 N/A 10 16 0.00 0.00
1:56 pm 13:56 Mostly Sunny 23 -5 9 -13 54 54 WNW 14 22 30.42 1030 10 16 0.00 0.00
2:56 pm 14:56 Sunny 23 -5 7 -14 50 50 NW 10 17 30.42 1030 10 16 0.00 0.00
3:56 pm 15:56 Partly Cloudy 21 -6 7 -14 54 54 WNW 9 15 30.43 1030 10 16 0.00 0.00
4:56 pm 16:56 Mostly Clear 21 -6 7 -14 54 54 W 5 7 30.43 1031 10 16 0.00 0.00
5:56 pm 17:56 Mostly Clear 19 -7 7 -14 58 58 Calm 30.43 1031 10 16 0.00 0.00
6:56 pm 18:56 Mostly Clear 18 -8 7 -14 62 62 SW 3 6 30.42 1030 10 16 0.00 0.00
7:56 pm 19:56 Partly Cloudy 18 -8 7 -14 62 62 Calm 30.42 1030 10 16 0.00 0.00
8:56 pm 20:56 Mostly Clear 16 -9 9 -13 73 73 S 5 7 30.40 1030 10 16 0.00 0.00
9:56 pm 21:56 Mostly Clear 18 -8 9 -13 68 68 S 8 13 30.37 1028 10 16 0.00 0.00
10:56 pm 22:56 Mostly Clear 19 -7 7 -14 58 58 SSE 6 9 30.37 1028 10 16 0.00 0.00
11:56 pm 23:56 Mostly Cloudy 21 -6 10 -12 63 63 SSE 7 11 30.33 1027 10 16 0.00 0.00

Powered by AerisWeather